FW2240 Weather Reports


Display with metric or nautical units.
time (UTC)temp
F
wind
direction
speed
MPH
gust
MPH
rain 1hr
in
rain 24hr
in
rain mn
in
humidity
%
barometer
mb
20260503233404 85 273 0.0 1.0 0.00 0.00 0.00 39 1004.8
20260503232848 73 273 0.0 1.0 0.00 0.00 0.00 57 1005.4
20260503213148 74 131 0.0 4.0 0.00 0.00 0.00 53 1006.2
20260503202849 71 100 2.0 4.0 0.00 0.00 0.00 55 1007.0
20260503202101 71 212 0.0 4.0 0.00 0.00 0.00 58 1007.1
20260503201556 71 65 1.0 4.0 0.00 0.00 0.00 60 1007.3
20260503200557 70 82 1.0 4.0 0.00 0.00 0.00 59 1007.3
20260503195602 71 95 1.0 4.0 0.00 0.00 0.00 60 1007.5
20260503194603 70 248 0.0 3.0 0.00 0.00 0.00 60 1007.5
20260503193549 70 60 1.0 4.0 0.00 0.00 0.00 59 1007.5
20260503192553 70 54 1.0 4.0 0.00 0.00 0.00 59 1007.5
20260503192034 70 122 2.0 4.0 0.00 0.00 0.00 61 1007.5
20260503191253 69 44 2.0 4.0 0.00 0.00 0.00 61 1007.4
20260503190557 69 68 0.0 4.0 0.00 0.00 0.00 61 1007.4
20260503190107 69 248 0.0 4.0 0.00 0.00 0.00 62 1007.5
20260503185552 69 299 1.0 4.0 0.00 0.00 0.00 63 1007.5
20260503185045 70 99 2.0 4.0 0.00 0.00 0.00 63 1007.6
20260503184535 69 82 1.0 6.0 0.00 0.00 0.00 63 1007.5
20260503184032 69 139 2.0 6.0 0.00 0.00 0.00 65 1007.6
20260503183048 70 98 2.0 5.0 0.00 0.00 0.00 66 1007.6
20260503182536 70 67 1.0 5.0 0.00 0.00 0.00 64 1007.7
20260503181624 70 139 1.0 4.0 0.00 0.00 0.00 61 1007.7
20260503180736 71 72 1.0 3.0 0.00 0.00 0.00 62 1007.7
20260503180110 71 117 1.0 3.0 0.00 0.00 0.00 63 1007.8
20260503175554 71 107 0.0 3.0 0.00 0.00 0.00 63 1007.8
20260503175033 72 108 1.0 3.0 0.00 0.00 0.00 61 1007.9
20260503174056 73 139 0.0 2.0 0.00 0.00 0.00 60 1008.1